Weather History for Jackson, WY

Change the Weather History Date:

Friday, May 10, 2013

  Actual Average Record
Temperature  
Mean Temperature 50 °F -  
Max Temperature 68 °F 57 °F 75 °F (1960)
Min Temperature 32 °F 31 °F 17 °F (1999)
Degree Days  
Heating Degree Days 15    
Moisture  
Dew Point 29 °F    
Average Humidity 57    
Maximum Humidity 93    
Minimum Humidity 15    
Precipitation  
Precipitation 0.00 in - - ()
Sea Level Pressure  
Sea Level Pressure 30.31 in    
Wind  
Wind Speed 8 mph (North)    
Max Wind Speed 14 mph    
Max Gust Speed 23 mph    
Visibility 10 miles    
Events      
Averages and records for this station are not official NWS values.
T = Trace of Precipitation, MM = Missing Value Source: NWS Daily Summary

Daily Weather History Graph

Daily Weather History Graph

Search for Another Location

Airport:

Trip Planner

Search our weather history database for the weather conditions in past years. The results will help you decide how hot, cold, wet, or windy it might be!

Date:

Astronomy

May. 10, 2013 Rise Set
Actual Time 6:03 AM MDT 8:36 PM MDT
Civil Twilight 5:30 AM MDT 9:08 PM MDT
Nautical Twilight 4:50 AM MDT 9:49 PM MDT
Astronomical Twilight 4:04 AM MDT 10:35 PM MDT
Moon 6:29 AM MDT (5/10) 9:29 PM MDT (5/10)
Length of Visible Light 15h 37m
Length of Day
14h 32m
New Moon, 1% of the Moon is Illuminated
May 10
New Moon
May 17
First Quarter
May 24
Full
May 31
Last Quarter
Jun 8
New

Hourly Weather History & Observations

Time (MDT) Temp. Windchill Dew Point Humidity Pressure Visibility Wind Dir Wind Speed Gust Speed Precip Events Conditions
12:15 AM 42.8 °F 39.3 °F 33.8 °F 70% 30.27 in 10.0 mi North 5.8 mph - N/A   Clear
12:35 AM 44.6 °F 38.4 °F 33.8 °F 66% 30.27 in 10.0 mi North 12.7 mph - N/A   Clear
12:55 AM 42.8 °F 37.0 °F 33.8 °F 70% 30.27 in 10.0 mi North 10.4 mph - N/A   Clear
1:15 AM 42.8 °F 36.6 °F 33.8 °F 70% 30.27 in 10.0 mi North 11.5 mph - N/A   Clear
1:35 AM 41.0 °F 33.9 °F 33.8 °F 76% 30.27 in 10.0 mi NNW 12.7 mph - N/A   Clear
1:55 AM 41.0 °F 34.3 °F 33.8 °F 76% 30.27 in 10.0 mi North 11.5 mph - N/A   Clear
2:15 AM 37.4 °F - 33.8 °F 87% 30.28 in 10.0 mi Calm Calm - N/A   Clear
2:35 AM 39.2 °F 31.6 °F 33.8 °F 81% 30.28 in 10.0 mi North 12.7 mph - N/A   Clear
2:55 AM 37.4 °F 30.3 °F 33.8 °F 87% 30.28 in 10.0 mi NNE 10.4 mph - N/A   Clear
3:15 AM 37.4 °F 29.8 °F 33.8 °F 87% 30.29 in 10.0 mi North 11.5 mph - N/A   Clear
3:35 AM 37.4 °F 31.4 °F 33.8 °F 87% 30.29 in 10.0 mi NE 8.1 mph - N/A   Clear
4:15 AM 37.4 °F 33.8 °F 32.0 °F 81% 30.31 in 10.0 mi NNW 4.6 mph - N/A   Clear
4:35 AM 35.6 °F 32.8 °F 30.2 °F 81% 30.31 in - North 3.5 mph - N/A   Clear
4:55 AM 33.8 °F 28.6 °F 30.2 °F 87% 30.31 in 10.0 mi NNE 5.8 mph - N/A   Clear
5:15 AM 32.0 °F 28.7 °F 30.2 °F 93% 30.31 in 10.0 mi NNE 3.5 mph - N/A   Clear
5:36 AM 33.8 °F 27.0 °F 30.2 °F 87% 30.32 in 10.0 mi North 8.1 mph - N/A   Clear
5:55 AM 32.0 °F 27.5 °F 30.2 °F 93% 30.32 in 10.0 mi North 4.6 mph - N/A   Clear
6:15 AM 32.0 °F 25.6 °F 30.2 °F 93% 30.33 in 10.0 mi NNE 6.9 mph - N/A   Clear
6:35 AM 33.8 °F 27.7 °F 30.2 °F 87% 30.33 in 10.0 mi NNE 6.9 mph - N/A   Clear
6:51 AM 35.6 °F 29.2 °F 32.0 °F 87% 30.34 in 10.0 mi North 8.1 mph - N/A   Clear
7:51 AM 41.0 °F 34.7 °F 33.8 °F 76% 30.34 in 10.0 mi North 10.4 mph - N/A   Clear
8:52 AM 46.4 °F 41.9 °F 33.8 °F 62% 30.35 in 10.0 mi North 9.2 mph - N/A   Clear
10:51 AM 57.2 °F - 32.0 °F 38% 30.34 in 10.0 mi NW 5.8 mph - N/A   Clear
11:52 AM 64.4 °F - 26.6 °F 24% 30.33 in 10.0 mi North 13.8 mph 18.4 mph N/A   Clear
12:53 PM 64.4 °F - 23.0 °F 21% 30.32 in 10.0 mi North 11.5 mph 19.6 mph N/A   Clear
1:52 PM 64.4 °F - 24.8 °F 22% 30.31 in 10.0 mi NNW 8.1 mph 23.0 mph N/A   Partly Cloudy
2:51 PM 64.4 °F - 21.2 °F 19% 30.30 in 10.0 mi ENE 4.6 mph - N/A   Scattered Clouds
3:51 PM 66.2 °F - 19.4 °F 17% 30.29 in 10.0 mi NW 10.4 mph 16.1 mph N/A   Scattered Clouds
4:51 PM 68.0 °F - 19.4 °F 16% 30.29 in 10.0 mi NNW 10.4 mph 19.6 mph N/A   Scattered Clouds
5:48 PM 64.4 °F - 30.2 °F 28% 30.24 in 40.0 mi NNW 6.9 mph - N/A   Scattered Clouds
5:56 PM 68.0 °F - 19.4 °F 16% 30.29 in 10.0 mi NW 12.7 mph 18.4 mph N/A   Partly Cloudy
6:51 PM 66.2 °F - 17.6 °F 15% 30.30 in 10.0 mi NNW 12.7 mph - N/A   Clear
7:51 PM 62.6 °F - 19.4 °F 19% 30.30 in 10.0 mi NNW 8.1 mph - N/A   Clear
8:51 PM 53.6 °F - 23.0 °F 30% 30.33 in 10.0 mi NNW 5.8 mph - N/A   Clear
9:15 PM 48.2 °F - 23.0 °F 37% 30.34 in 10.0 mi NNW 5.8 mph - N/A   Clear
9:35 PM 51.8 °F - 24.8 °F 35% 30.34 in 10.0 mi NW 4.6 mph - N/A   Clear
9:55 PM 51.8 °F - 24.8 °F 35% 30.36 in 10.0 mi Calm Calm - N/A   Clear
10:16 PM 48.2 °F - 26.6 °F 43% 30.37 in 10.0 mi West 4.6 mph - N/A   Clear
10:35 PM 48.2 °F - 28.4 °F 46% 30.37 in 10.0 mi NNW 5.8 mph - N/A   Clear
10:55 PM 48.2 °F - 26.6 °F 43% 30.38 in 10.0 mi North 4.6 mph - N/A   Clear
11:15 PM 42.8 °F 41.1 °F 28.4 °F 57% 30.38 in 10.0 mi NNE 3.5 mph - N/A   Clear
11:35 PM 42.8 °F 37.5 °F 28.4 °F 57% 30.38 in 10.0 mi North 9.2 mph - N/A   Clear